Time,TemperatureF,DewpointF,PressureIn,WindDirection,WindDirectionDegrees,WindSpeedMPH,WindSpeedGustMPH,Humidity,HourlyPrecipIn,Conditions,Clouds,dailyrainin,SolarRadiationWatts/m^2,SoftwareType,DateUTC
2013-03-31 00:03:00,43.0,-99.9,-100.00,SW,235,0.0,0.0,74,0.00,,,0.00,0.000000,,2013-03-31 04:03:00,
2013-03-31 00:13:00,43.0,35.0,-100.00,SW,235,0.0,0.0,74,0.00,,,0.00,0.000000,,2013-03-31 04:13:00,
2013-03-31 00:43:00,43.0,36.0,-100.00,SW,228,1.0,2.0,77,0.00,,,0.00,0.000000,,2013-03-31 04:43:00,
2013-03-31 00:53:00,43.0,36.0,-100.00,SW,228,1.0,2.0,77,0.00,,,0.00,0.000000,,2013-03-31 04:53:00,
2013-03-31 01:02:00,43.0,36.0,-100.00,SW,228,1.0,2.0,77,0.00,,,0.00,0.000000,,2013-03-31 05:02:00,
2013-03-31 01:13:00,43.0,36.0,-100.00,SW,228,1.0,2.0,77,0.00,,,0.00,0.000000,,2013-03-31 05:13:00,
2013-03-31 01:42:00,42.0,36.0,-100.00,South,180,1.0,3.0,78,0.00,,,0.00,0.000000,,2013-03-31 05:42:00,
2013-03-31 01:53:00,42.0,36.0,-100.00,South,180,1.0,3.0,78,0.00,,,0.00,0.000000,,2013-03-31 05:53:00,
2013-03-31 02:02:00,42.0,36.0,-100.00,South,180,1.0,3.0,78,0.00,,,0.00,0.000000,,2013-03-31 06:02:00,
2013-03-31 02:12:00,42.0,36.0,-100.00,South,180,1.0,3.0,78,0.00,,,0.00,0.000000,,2013-03-31 06:12:00,
2013-03-31 02:42:00,42.0,36.0,-100.00,South,170,0.0,3.0,79,0.00,,,0.00,0.000000,,2013-03-31 06:42:00,
2013-03-31 02:53:00,42.0,36.0,-100.00,South,170,0.0,3.0,79,0.00,,,0.00,0.000000,,2013-03-31 06:53:00,
2013-03-31 03:02:00,42.0,36.0,-100.00,South,170,0.0,3.0,79,0.00,,,0.00,0.000000,,2013-03-31 07:02:00,
2013-03-31 03:12:00,42.0,36.0,-100.00,South,170,0.0,3.0,79,0.00,,,0.00,0.000000,,2013-03-31 07:12:00,
2013-03-31 03:43:00,42.0,36.0,-100.00,SW,232,2.0,4.0,79,0.00,,,0.00,0.000000,,2013-03-31 07:43:00,
2013-03-31 03:53:00,42.0,36.0,-100.00,SW,232,2.0,4.0,79,0.00,,,0.00,0.000000,,2013-03-31 07:53:00,
2013-03-31 04:02:00,42.0,36.0,-100.00,SW,232,2.0,4.0,79,0.00,,,0.00,0.000000,,2013-03-31 08:02:00,
2013-03-31 04:12:00,42.0,36.0,-100.00,SW,232,2.0,4.0,79,0.00,,,0.00,0.000000,,2013-03-31 08:12:00,
2013-03-31 04:42:00,42.0,41.0,-100.00,NNE,32,1.0,6.0,98,0.12,,,0.12,0.000000,,2013-03-31 08:42:00,
2013-03-31 04:52:00,42.0,41.0,-100.00,NNE,32,1.0,6.0,98,0.12,,,0.12,0.000000,,2013-03-31 08:52:00,
2013-03-31 05:02:00,42.0,41.0,-100.00,NNE,32,1.0,6.0,98,0.12,,,0.12,0.000000,,2013-03-31 09:02:00,
2013-03-31 05:12:00,42.0,41.0,-100.00,NNE,32,1.0,6.0,98,0.12,,,0.12,0.000000,,2013-03-31 09:12:00,
2013-03-31 05:43:00,42.0,42.0,-100.00,West,278,0.0,3.0,100,0.07,,,0.19,0.000000,,2013-03-31 09:43:00,
2013-03-31 05:53:00,42.0,42.0,-100.00,West,278,0.0,3.0,100,0.07,,,0.19,0.000000,,2013-03-31 09:53:00,
2013-03-31 06:03:00,42.0,42.0,-100.00,West,278,0.0,3.0,100,0.07,,,0.19,0.000000,,2013-03-31 10:03:00,
2013-03-31 06:13:00,42.0,42.0,-100.00,West,278,0.0,3.0,100,0.07,,,0.19,0.000000,,2013-03-31 10:13:00,
2013-03-31 06:42:00,42.0,42.0,-100.00,NE,40,0.0,2.0,100,0.02,,,0.21,0.000000,,2013-03-31 10:42:00,
2013-03-31 06:53:00,42.0,42.0,-100.00,NE,40,0.0,2.0,100,0.02,,,0.21,0.000000,,2013-03-31 10:53:00,
2013-03-31 07:03:00,42.0,42.0,-100.00,NE,40,0.0,2.0,100,0.02,,,0.21,0.000000,,2013-03-31 11:03:00,
2013-03-31 07:12:00,42.0,42.0,-100.00,NE,40,0.0,2.0,100,0.02,,,0.21,0.000000,,2013-03-31 11:12:00,
2013-03-31 07:43:00,42.0,42.0,-100.00,ENE,71,0.0,3.0,100,0.03,,,0.24,0.000000,,2013-03-31 11:43:00,
2013-03-31 07:53:00,42.0,42.0,-100.00,ENE,71,0.0,3.0,100,0.03,,,0.24,0.000000,,2013-03-31 11:53:00,
2013-03-31 08:03:00,42.0,42.0,-100.00,ENE,71,0.0,3.0,100,0.03,,,0.24,0.000000,,2013-03-31 12:03:00,
2013-03-31 08:12:00,42.0,42.0,-100.00,ENE,71,0.0,3.0,100,0.03,,,0.24,0.000000,,2013-03-31 12:12:00,
2013-03-31 08:42:00,43.0,43.0,-100.00,ESE,110,1.0,4.0,100,0.00,,,0.24,11.000000,,2013-03-31 12:42:00,
2013-03-31 08:53:00,43.0,43.0,-100.00,ESE,110,1.0,4.0,100,0.00,,,0.24,11.000000,,2013-03-31 12:53:00,
2013-03-31 09:02:00,43.0,43.0,-100.00,ESE,110,1.0,4.0,100,0.00,,,0.24,11.000000,,2013-03-31 13:02:00,
2013-03-31 09:12:00,43.0,43.0,-100.00,ESE,110,1.0,4.0,100,0.00,,,0.24,11.000000,,2013-03-31 13:12:00,
2013-03-31 09:42:00,46.0,46.0,-100.00,ESE,120,0.0,3.0,100,0.04,,,0.28,39.000000,,2013-03-31 13:42:00,
2013-03-31 09:53:00,46.0,46.0,-100.00,ESE,120,0.0,3.0,100,0.04,,,0.28,39.000000,,2013-03-31 13:53:00,
2013-03-31 10:03:00,46.0,46.0,-100.00,ESE,120,0.0,3.0,100,0.04,,,0.28,39.000000,,2013-03-31 14:03:00,
2013-03-31 10:12:00,46.0,46.0,-100.00,ESE,120,0.0,3.0,100,0.04,,,0.28,39.000000,,2013-03-31 14:12:00,
2013-03-31 10:43:00,50.0,50.0,-100.00,NNW,336,2.0,6.0,100,0.01,,,0.29,118.000000,,2013-03-31 14:43:00,
2013-03-31 10:53:00,50.0,50.0,-100.00,NNW,336,2.0,6.0,100,0.01,,,0.29,118.000000,,2013-03-31 14:53:00,
2013-03-31 11:03:00,50.0,50.0,-100.00,NNW,336,2.0,6.0,100,0.01,,,0.29,118.000000,,2013-03-31 15:03:00,
2013-03-31 11:13:00,50.0,50.0,-100.00,NNW,336,2.0,6.0,100,0.01,,,0.29,118.000000,,2013-03-31 15:13:00,
2013-03-31 11:44:00,55.0,50.0,-100.00,WNW,286,6.0,11.0,84,0.00,,,0.29,192.000000,,2013-03-31 15:44:00,
2013-03-31 11:54:00,55.0,50.0,-100.00,WNW,286,6.0,11.0,84,0.00,,,0.29,192.000000,,2013-03-31 15:54:00,
2013-03-31 12:03:00,55.0,50.0,-100.00,WNW,286,6.0,11.0,84,0.00,,,0.29,192.000000,,2013-03-31 16:03:00,
2013-03-31 12:13:00,55.0,50.0,-100.00,WNW,286,6.0,11.0,84,0.00,,,0.29,192.000000,,2013-03-31 16:13:00,
2013-03-31 12:43:00,57.0,47.0,-100.00,West,276,7.0,16.0,68,0.00,,,0.29,333.000000,,2013-03-31 16:43:00,
2013-03-31 12:54:00,57.0,47.0,-100.00,West,276,7.0,16.0,68,0.00,,,0.29,333.000000,,2013-03-31 16:54:00,
2013-03-31 13:03:00,57.0,47.0,-100.00,West,276,7.0,16.0,68,0.00,,,0.29,333.000000,,2013-03-31 17:03:00,
2013-03-31 13:13:00,57.0,47.0,-100.00,West,276,7.0,16.0,68,0.00,,,0.29,333.000000,,2013-03-31 17:13:00,
2013-03-31 13:43:00,57.0,47.0,-100.00,West,280,5.0,12.0,68,0.00,,,0.29,228.000000,,2013-03-31 17:43:00,
2013-03-31 13:52:00,57.0,47.0,-100.00,West,280,5.0,12.0,68,0.00,,,0.29,228.000000,,2013-03-31 17:52:00,
2013-03-31 14:03:00,57.0,47.0,-100.00,West,280,5.0,12.0,68,0.00,,,0.29,228.000000,,2013-03-31 18:03:00,
2013-03-31 14:13:00,57.0,47.0,-100.00,West,280,5.0,12.0,68,0.00,,,0.29,228.000000,,2013-03-31 18:13:00,
2013-03-31 14:43:00,56.0,47.0,-100.00,West,279,7.0,13.0,71,0.00,,,0.29,147.000000,,2013-03-31 18:43:00,
2013-03-31 14:53:00,56.0,47.0,-100.00,West,279,7.0,13.0,71,0.00,,,0.29,147.000000,,2013-03-31 18:53:00,
2013-03-31 15:03:00,56.0,47.0,-100.00,West,279,7.0,13.0,71,0.00,,,0.29,147.000000,,2013-03-31 19:03:00,
2013-03-31 15:12:00,56.0,47.0,-100.00,West,279,7.0,13.0,71,0.00,,,0.29,147.000000,,2013-03-31 19:12:00,
2013-03-31 15:43:00,57.0,45.0,-100.00,West,267,9.0,22.0,64,0.00,,,0.29,283.000000,,2013-03-31 19:43:00,
2013-03-31 15:54:00,57.0,45.0,-100.00,West,267,9.0,22.0,64,0.00,,,0.29,283.000000,,2013-03-31 19:54:00,
2013-03-31 16:03:00,57.0,45.0,-100.00,West,267,9.0,22.0,64,0.00,,,0.29,283.000000,,2013-03-31 20:03:00,
2013-03-31 16:13:00,57.0,45.0,-100.00,West,267,9.0,22.0,64,0.00,,,0.29,283.000000,,2013-03-31 20:13:00,
2013-03-31 16:43:00,57.0,45.0,-100.00,West,273,5.0,16.0,63,0.00,,,0.29,175.000000,,2013-03-31 20:43:00,
2013-03-31 16:53:00,57.0,45.0,-100.00,West,273,5.0,16.0,63,0.00,,,0.29,175.000000,,2013-03-31 20:53:00,
2013-03-31 17:03:00,57.0,45.0,-100.00,West,273,5.0,16.0,63,0.00,,,0.29,175.000000,,2013-03-31 21:03:00,
2013-03-31 17:13:00,57.0,45.0,-100.00,West,273,5.0,16.0,63,0.00,,,0.29,175.000000,,2013-03-31 21:13:00,
2013-03-31 17:44:00,56.0,44.0,-100.00,West,269,5.0,11.0,63,0.00,,,0.29,100.000000,,2013-03-31 21:44:00,
2013-03-31 17:54:00,56.0,44.0,-100.00,West,269,5.0,11.0,63,0.00,,,0.29,100.000000,,2013-03-31 21:54:00,
2013-03-31 18:04:00,56.0,44.0,-100.00,West,269,5.0,11.0,63,0.00,,,0.29,100.000000,,2013-03-31 22:04:00,
2013-03-31 18:13:00,56.0,44.0,-100.00,West,269,5.0,11.0,63,0.00,,,0.29,100.000000,,2013-03-31 22:13:00,
2013-03-31 18:43:00,56.0,43.0,-100.00,West,277,4.0,7.0,62,0.00,,,0.29,99.000000,,2013-03-31 22:43:00,
2013-03-31 18:53:00,56.0,43.0,-100.00,West,277,4.0,7.0,62,0.00,,,0.29,99.000000,,2013-03-31 22:53:00,
2013-03-31 19:03:00,56.0,43.0,-100.00,West,277,4.0,7.0,62,0.00,,,0.29,99.000000,,2013-03-31 23:03:00,
2013-03-31 19:13:00,56.0,43.0,-100.00,West,277,4.0,7.0,62,0.00,,,0.29,99.000000,,2013-03-31 23:13:00,
2013-03-31 19:43:00,54.0,42.0,-100.00,WSW,237,4.0,8.0,63,0.00,,,0.29,64.000000,,2013-03-31 23:43:00,
2013-03-31 19:54:00,54.0,42.0,-100.00,WSW,237,4.0,8.0,63,0.00,,,0.29,64.000000,,2013-03-31 23:54:00,
2013-03-31 20:03:00,54.0,42.0,-100.00,WSW,237,4.0,8.0,63,0.00,,,0.29,64.000000,,2013-04-01 00:03:00,
2013-03-31 20:13:00,54.0,42.0,-100.00,WSW,237,4.0,8.0,63,0.00,,,0.29,64.000000,,2013-04-01 00:13:00,
2013-03-31 20:43:00,51.0,45.0,-100.00,WSW,251,1.0,3.0,79,0.00,,,0.29,3.000000,,2013-04-01 00:43:00,
2013-03-31 20:53:00,51.0,45.0,-100.00,WSW,251,1.0,3.0,79,0.00,,,0.29,3.000000,,2013-04-01 00:53:00,
2013-03-31 21:03:00,51.0,45.0,-100.00,WSW,251,1.0,3.0,79,0.00,,,0.29,3.000000,,2013-04-01 01:03:00,
2013-03-31 21:13:00,51.0,45.0,-100.00,WSW,251,1.0,3.0,79,0.00,,,0.29,3.000000,,2013-04-01 01:13:00,
2013-03-31 21:43:00,47.0,44.0,-100.00,SSW,202,1.0,3.0,88,0.00,,,0.29,0.000000,,2013-04-01 01:43:00,
2013-03-31 21:53:00,47.0,44.0,-100.00,SSW,202,1.0,3.0,88,0.00,,,0.29,0.000000,,2013-04-01 01:53:00,
2013-03-31 22:03:00,47.0,44.0,-100.00,SSW,202,1.0,3.0,88,0.00,,,0.29,0.000000,,2013-04-01 02:03:00,
2013-03-31 22:13:00,47.0,44.0,-100.00,SSW,202,1.0,3.0,88,0.00,,,0.29,0.000000,,2013-04-01 02:13:00,
2013-03-31 22:43:00,45.0,44.0,-100.00,SSW,212,1.0,3.0,96,0.00,,,0.29,0.000000,,2013-04-01 02:43:00,
2013-03-31 22:53:00,45.0,44.0,-100.00,SSW,212,1.0,3.0,96,0.00,,,0.29,0.000000,,2013-04-01 02:53:00,
2013-03-31 23:03:00,45.0,44.0,-100.00,SSW,212,1.0,3.0,96,0.00,,,0.29,0.000000,,2013-04-01 03:03:00,
2013-03-31 23:12:00,45.0,44.0,-100.00,SSW,212,1.0,3.0,96,0.00,,,0.29,0.000000,,2013-04-01 03:12:00,
2013-03-31 23:43:00,44.0,44.0,-100.00,SW,227,0.0,0.0,99,0.00,,,0.29,0.000000,,2013-04-01 03:43:00,
2013-03-31 23:53:00,44.0,44.0,-100.00,SW,227,0.0,0.0,99,0.00,,,0.29,0.000000,,2013-04-01 03:53:00,